Tracking 19908 objects as of 18-Oct-2019
HD Live streaming from Space Station
objects crossing your sky now

SL-14 R/B

Track SL-14 R/B now!
10-day predictions
SL-14 R/B is classified as:


NORAD ID: 16496
Int'l Code: 1986-006B
Perigee: 609.2 km
Apogee: 637.8 km
Inclination: 82.5 °
Period: 97.0 minutes
Semi major axis: 6994 km
RCS: 4.4915 m2 (large)
Launch date: January 17, 1986
Source: Commonwealth of Independent States (former USSR) (CIS)
Launch site: PLESETSK MISSILE AND SPACE COMPLEX (PKMTR)

Note: This is a ROCKET BODY
aabbcc
Your satellite tracking list
Your tracking list is empty




NASA's NSSDC Master Catalog

Two Line Element Set (TLE):
1 16496U 86006B   19290.58250067 +.00000061 +00000-0 +43617-5 0  9993
2 16496 082.5219 290.6379 0020406 133.0586 006.6240 14.84120664802676
Source of the keplerian elements: AFSPC